When you browse on this site, cookies collect data to enhance your experience and personalize the content and advertising you see.
Visit our Privacy Policy to learn more. By continuing to use the site, you agree to this use of cookies and data.
  • In France
  • List of Countries
  • For 7 days
  • Water Temperature
  • Satellite Maps
  • Weather Map
  • Weather Widgets
  • user-avatar
    Login

    Hourly Weather La Rioja

    Today, 18 November, Sunday

    Time Temperature Precipitation Wind Pressure Humidity
    00:00 +27°C° 0 mm 5 mps 716 mmHg 43%
    01:00 +26°C° 0 mm 5 mps 717 mmHg 44%
    02:00 +25°C° 0 mm 5 mps 717 mmHg 40%
    03:00 +23°C° 0 mm 5 mps 717 mmHg 39%
    04:00 +22°C° 0 mm 4 mps 718 mmHg 38%
    05:00 +21°C° 0 mm 3 mps 718 mmHg 36%
    06:00 +22°C° 0 mm 3 mps 718 mmHg 34%
    07:00 +22°C° 0 mm 3 mps 719 mmHg 33%
    08:00 +22°C° 0 mm 3 mps 719 mmHg 31%
    09:00 +25°C° 0 mm 3 mps 719 mmHg 31%
    10:00 +26°C° 0 mm 4 mps 718 mmHg 31%
    11:00 +27°C° 0 mm 4 mps 718 mmHg 31%
    12:00 +28°C° 0 mm 4 mps 717 mmHg 30%
    13:00 +29°C° 0 mm 5 mps 716 mmHg 29%
    14:00 +30°C° 0 mm 5 mps 716 mmHg 28%
    15:00 +30°C° 0 mm 5 mps 715 mmHg 28%
    16:00 +30°C° 0 mm 5 mps 715 mmHg 28%
    17:00 +30°C° 0 mm 5 mps 714 mmHg 27%
    18:00 +29°C° 0 mm 5 mps 715 mmHg 29%
    19:00 +28°C° 0 mm 4 mps 715 mmHg 30%
    20:00 +27°C° 0 mm 4 mps 716 mmHg 32%
    21:00 +26°C° 0 mm 3 mps 716 mmHg 34%
    22:00 +26°C° 0 mm 3 mps 716 mmHg 37%
    23:00 +25°C° 0 mm 2 mps 717 mmHg 39%

    Tomorrow, 19 November, Monday

    Time Temperature Precipitation Wind Pressure Humidity
    00:00 +24°C° 0 mm 2 mps 716 mmHg 41%
    01:00 +24°C° 0 mm 2 mps 716 mmHg 43%
    02:00 +23°C° 0 mm 2 mps 715 mmHg 45%
    03:00 +23°C° 0 mm 2 mps 715 mmHg 47%
    04:00 +21°C° 0 mm 2 mps 715 mmHg 50%
    05:00 +21°C° 0 mm 2 mps 715 mmHg 52%
    06:00 +23°C° 0 mm 2 mps 715 mmHg 49%
    07:00 +24°C° 0 mm 2 mps 715 mmHg 47%
    08:00 +25°C° 0 mm 2 mps 715 mmHg 44%
    09:00 +26°C° 0 mm 2 mps 715 mmHg 40%
    10:00 +28°C° 0 mm 2 mps 714 mmHg 37%
    11:00 +30°C° 0 mm 3 mps 714 mmHg 33%
    12:00 +31°C° 0 mm 3 mps 713 mmHg 31%
    13:00 +33°C° 0 mm 3 mps 712 mmHg 28%
    14:00 +34°C° 0 mm 3 mps 712 mmHg 26%
    15:00 +35°C° 0 mm 4 mps 711 mmHg 26%
    16:00 +35°C° 0 mm 4 mps 711 mmHg 26%
    17:00 +35°C° 0 mm 4 mps 710 mmHg 25%
    18:00 +34°C° 0 mm 4 mps 711 mmHg 29%
    19:00 +33°C° 0 mm 4 mps 712 mmHg 33%
    20:00 +30°C° 0 mm 4 mps 712 mmHg 37%
    21:00 +30°C° 0 mm 4 mps 713 mmHg 42%
    22:00 +29°C° 0 mm 3 mps 713 mmHg 46%
    23:00 +28°C° 0 mm 3 mps 714 mmHg 50%

    Day after tomorrow, 20 November, Tuesday

    Time Temperature Precipitation Wind Pressure Humidity
    00:00 +27°C° 0 mm 3 mps 714 mmHg 53%
    01:00 +26°C° 0 mm 2 mps 713 mmHg 56%
    02:00 +26°C° 0 mm 2 mps 713 mmHg 59%
    03:00 +25°C° 0 mm 2 mps 713 mmHg 61%
    04:00 +24°C° 0 mm 2 mps 713 mmHg 63%
    05:00 +24°C° 0 mm 2 mps 713 mmHg 64%
    06:00 +25°C° 0 mm 2 mps 713 mmHg 59%
    07:00 +26°C° 0 mm 2 mps 714 mmHg 54%
    08:00 +27°C° 0 mm 2 mps 714 mmHg 49%
    09:00 +29°C° 0 mm 2 mps 714 mmHg 44%
    10:00 +30°C° 0 mm 2 mps 714 mmHg 38%
    11:00 +33°C° 0 mm 3 mps 714 mmHg 33%
    12:00 +34°C° 0 mm 3 mps 713 mmHg 31%
    13:00 +35°C° 0 mm 3 mps 713 mmHg 29%
    14:00 +36°C° 0 mm 3 mps 712 mmHg 27%
    15:00 +37°C° 0 mm 3 mps 711 mmHg 26%
    16:00 +37°C° 0 mm 3 mps 711 mmHg 25%
    17:00 +37°C° 0 mm 3 mps 710 mmHg 24%
    18:00 +36°C° 0 mm 3 mps 711 mmHg 27%
    19:00 +35°C° 0 mm 3 mps 711 mmHg 29%
    20:00 +34°C° 0 mm 3 mps 712 mmHg 32%
    21:00 +33°C° 0 mm 3 mps 712 mmHg 35%
    22:00 +31°C° 0 mm 2 mps 713 mmHg 38%
    23:00 +30°C° 0 mm 2 mps 713 mmHg 41%

    21 November, Wednesday

    Time Temperature Precipitation Wind Pressure Humidity
    00:00 +30°C° 0 mm 2 mps 713 mmHg 43%
    01:00 +29°C° 0 mm 2 mps 712 mmHg 45%
    02:00 +29°C° 0 mm 2 mps 712 mmHg 47%
    03:00 +28°C° 0 mm 2 mps 712 mmHg 50%
    04:00 +27°C° 0 mm 2 mps 712 mmHg 52%
    05:00 +27°C° 0 mm 2 mps 712 mmHg 55%
    06:00 +28°C° 0 mm 2 mps 712 mmHg 50%
    07:00 +29°C° 0 mm 2 mps 712 mmHg 46%
    08:00 +30°C° 0 mm 2 mps 713 mmHg 42%
    09:00 +32°C° 0 mm 2 mps 712 mmHg 38%
    10:00 +34°C° 0 mm 2 mps 712 mmHg 34%
    11:00 +36°C° 0 mm 2 mps 711 mmHg 30%
    12:00 +37°C° 0 mm 2 mps 711 mmHg 28%
    13:00 +38°C° 0 mm 3 mps 710 mmHg 26%
    14:00 +39°C° 0 mm 3 mps 709 mmHg 24%
    15:00 +39°C° 0 mm 3 mps 708 mmHg 23%
    16:00 +40°C° 0 mm 3 mps 708 mmHg 23%
    17:00 +40°C° 0 mm 3 mps 707 mmHg 22%
    18:00 +39°C° 0 mm 3 mps 708 mmHg 25%
    19:00 +37°C° 0 mm 3 mps 708 mmHg 28%
    20:00 +36°C° 0 mm 3 mps 708 mmHg 31%
    21:00 +35°C° 0 mm 3 mps 709 mmHg 33%
    22:00 +35°C° 0 mm 3 mps 709 mmHg 35%
    23:00 +34°C° 0 mm 3 mps 710 mmHg 37%

    22 November, Thursday

    Time Temperature Precipitation Wind Pressure Humidity
    00:00 +32°C° 0 mm 2 mps 709 mmHg 38%
    01:00 +32°C° 0 mm 2 mps 709 mmHg 39%
    02:00 +31°C° 0 mm 2 mps 709 mmHg 40%
    03:00 +31°C° 0.1 mm 2 mps 709 mmHg 39%
    04:00 +30°C° 0.1 mm 2 mps 709 mmHg 39%
    05:00 +30°C° 0.1 mm 2 mps 709 mmHg 39%
    06:00 +31°C° 0.2 mm 3 mps 710 mmHg 37%
    07:00 +33°C° 0.2 mm 3 mps 711 mmHg 35%
    08:00 +34°C° 0.2 mm 4 mps 712 mmHg 34%
    09:00 +34°C° 0.5 mm 6 mps 713 mmHg 36%
    10:00 +34°C° 0.5 mm 8 mps 714 mmHg 38%
    11:00 +34°C° 0.5 mm 10 mps 715 mmHg 41%
    12:00 +32°C° 0.8 mm 10 mps 715 mmHg 44%
    13:00 +29°C° 0.8 mm 9 mps 715 mmHg 47%
    14:00 +28°C° 0.8 mm 9 mps 714 mmHg 49%
    15:00 +28°C° 0 mm 8 mps 714 mmHg 46%
    16:00 +29°C° 0 mm 7 mps 714 mmHg 43%
    17:00 +29°C° 0 mm 6 mps 714 mmHg 40%
    18:00 +29°C° 0 mm 5 mps 715 mmHg 41%
    19:00 +28°C° 0 mm 4 mps 715 mmHg 42%
    20:00 +27°C° 0 mm 4 mps 716 mmHg 44%
    21:00 +27°C° 0 mm 3 mps 717 mmHg 45%
    22:00 +26°C° 0 mm 3 mps 717 mmHg 46%
    23:00 +26°C° 0 mm 2 mps 718 mmHg 47%

    23 November, Friday

    Time Temperature Precipitation Wind Pressure Humidity
    00:00 +25°C° 0 mm 2 mps 717 mmHg 50%
    01:00 +24°C° 0 mm 2 mps 717 mmHg 53%
    02:00 +24°C° 0 mm 2 mps 716 mmHg 56%
    03:00 +23°C° 0 mm 2 mps 717 mmHg 59%
    04:00 +23°C° 0 mm 2 mps 717 mmHg 63%
    05:00 +21°C° 0 mm 2 mps 717 mmHg 66%
    06:00 +23°C° 0 mm 2 mps 717 mmHg 64%
    07:00 +23°C° 0 mm 2 mps 717 mmHg 62%
    08:00 +24°C° 0 mm 2 mps 717 mmHg 60%
    09:00 +25°C° 0 mm 2 mps 717 mmHg 56%
    10:00 +27°C° 0 mm 3 mps 716 mmHg 52%
    11:00 +28°C° 0 mm 3 mps 716 mmHg 47%
    12:00 +29°C° 0 mm 3 mps 715 mmHg 44%
    13:00 +30°C° 0 mm 4 mps 714 mmHg 41%
    14:00 +32°C° 0 mm 4 mps 713 mmHg 39%
    15:00 +32°C° 0 mm 4 mps 713 mmHg 39%
    16:00 +33°C° 0 mm 4 mps 712 mmHg 38%
    17:00 +33°C° 0 mm 5 mps 712 mmHg 38%
    18:00 +32°C° 0 mm 5 mps 712 mmHg 41%
    19:00 +30°C° 0 mm 5 mps 713 mmHg 45%
    20:00 +29°C° 0 mm 5 mps 714 mmHg 48%
    21:00 +28°C° 0 mm 5 mps 714 mmHg 52%
    22:00 +27°C° 0 mm 4 mps 715 mmHg 56%
    23:00 +26°C° 0 mm 4 mps 715 mmHg 60%
    Show more